| time (UTC) | temp C | wind direction | speed KPH | gust KPH | rain 1hr cm | rain 24hr cm | rain mn cm | humidity % | barometer mb |
| 20260507194550 | 20 | 197 | 11.3 | 19.3 | 0.00 | 0.00 | 0.00 | 35 | 1019.0 |
| 20260507193109 | 20 | 197 | 3.2 | 9.7 | 0.00 | 0.00 | 0.00 | 39 | 1018.8 |
| 20260507191536 | 20 | 197 | 3.2 | 16.1 | 0.00 | 0.00 | 0.00 | 38 | 1018.7 |
| 20260507190039 | 20 | 197 | 3.2 | 17.7 | 0.00 | 0.00 | 0.00 | 34 | 1018.6 |
| 20260507184534 | 20 | 197 | 9.7 | 17.7 | 0.00 | 0.00 | 0.00 | 35 | 1018.7 |
| 20260507183039 | 20 | 196 | 6.4 | 12.9 | 0.00 | 0.00 | 0.00 | 39 | 1018.6 |
| 20260507181532 | 20 | 197 | 11.3 | 17.7 | 0.00 | 0.00 | 0.00 | 39 | 1018.6 |
| 20260507180032 | 20 | 197 | 8.0 | 17.7 | 0.00 | 0.00 | 0.00 | 44 | 1018.7 |
| 20260507174532 | 19 | 197 | 8.0 | 14.5 | 0.00 | 0.00 | 0.00 | 45 | 1018.5 |
| 20260507173031 | 20 | 197 | 8.0 | 16.1 | 0.00 | 0.00 | 0.00 | 46 | 1018.6 |
| 20260507171519 | 20 | 197 | 6.4 | 12.9 | 0.00 | 0.00 | 0.00 | 43 | 1018.7 |
| 20260507170019 | 21 | 197 | 3.2 | 11.3 | 0.00 | 0.00 | 0.00 | 38 | 1018.2 |
| 20260507164518 | 21 | 197 | 9.7 | 16.1 | 0.00 | 0.00 | 0.00 | 39 | 1018.1 |
| 20260507163017 | 21 | 197 | 8.0 | 17.7 | 0.00 | 0.00 | 0.00 | 38 | 1018.2 |
| 20260507161520 | 21 | 197 | 8.0 | 17.7 | 0.00 | 0.00 | 0.00 | 39 | 1018.2 |
| 20260507160027 | 21 | 197 | 9.7 | 17.7 | 0.00 | 0.00 | 0.00 | 40 | 1018.0 |
| 20260507154517 | 21 | 197 | 9.7 | 19.3 | 0.00 | 0.00 | 0.00 | 38 | 1018.2 |
| 20260507153020 | 21 | 200 | 14.5 | 22.5 | 0.00 | 0.00 | 0.00 | 38 | 1018.4 |
| 20260507151506 | 21 | 197 | 8.0 | 17.7 | 0.00 | 0.00 | 0.00 | 41 | 1018.6 |
| 20260507150003 | 21 | 197 | 4.8 | 17.7 | 0.00 | 0.00 | 0.00 | 43 | 1018.5 |
| 20260507144502 | 21 | 197 | 11.3 | 20.9 | 0.00 | 0.00 | 0.00 | 41 | 1018.6 |
| 20260507143002 | 21 | 200 | 8.0 | 22.5 | 0.00 | 0.00 | 0.00 | 42 | 1018.5 |
| 20260507141503 | 21 | 198 | 12.9 | 22.5 | 0.00 | 0.00 | 0.00 | 40 | 1018.6 |
| 20260507140111 | 22 | 201 | 14.5 | 27.4 | 0.00 | 0.00 | 0.00 | 39 | 1018.2 |
| 20260507134609 | 22 | 200 | 9.7 | 24.1 | 0.00 | 0.00 | 0.00 | 37 | 1018.2 |
| 20260507133108 | 23 | 201 | 12.9 | 20.9 | 0.00 | 0.00 | 0.00 | 33 | 1018.0 |
| 20260507131546 | 22 | 198 | 11.3 | 22.5 | 0.00 | 0.00 | 0.00 | 33 | 1017.9 |
| 20260507130044 | 22 | 201 | 12.9 | 20.9 | 0.00 | 0.00 | 0.00 | 37 | 1018.2 |
| 20260507124542 | 22 | 197 | 11.3 | 24.1 | 0.00 | 0.00 | 0.00 | 38 | 1018.5 |
| 20260507123045 | 22 | 200 | 9.7 | 20.9 | 0.00 | 0.00 | 0.00 | 42 | 1018.6 |
| 20260507121539 | 22 | 197 | 11.3 | 22.5 | 0.00 | 0.00 | 0.00 | 44 | 1018.6 |
| 20260507120038 | 22 | 195 | 12.9 | 22.5 | 0.00 | 0.00 | 0.00 | 46 | 1018.6 |
| 20260507114537 | 22 | 197 | 11.3 | 20.9 | 0.00 | 0.00 | 0.00 | 44 | 1018.7 |
| 20260507113037 | 22 | 197 | 11.3 | 22.5 | 0.00 | 0.00 | 0.00 | 51 | 1018.8 |
| 20260507111520 | 22 | 200 | 11.3 | 20.9 | 0.00 | 0.00 | 0.00 | 54 | 1019.0 |
| 20260507110021 | 22 | 200 | 9.7 | 22.5 | 0.00 | 0.00 | 0.00 | 58 | 1018.8 |
| 20260507104520 | 22 | 195 | 8.0 | 20.9 | 0.00 | 0.00 | 0.00 | 53 | 1018.9 |
| 20260507103018 | 22 | 197 | 9.7 | 19.3 | 0.00 | 0.00 | 0.00 | 50 | 1018.5 |
| 20260507101518 | 22 | 200 | 11.3 | 20.9 | 0.00 | 0.00 | 0.00 | 50 | 1018.3 |
| 20260507100015 | 22 | 197 | 6.4 | 16.1 | 0.00 | 0.00 | 0.00 | 53 | 1018.4 |
| 20260507094511 | 21 | 198 | 0.0 | 12.9 | 0.00 | 0.00 | 0.00 | 73 | 1018.5 |
| 20260507093011 | 21 | 197 | 6.4 | 16.1 | 0.00 | 0.00 | 0.00 | 73 | 1018.6 |
| 20260507091557 | 21 | 197 | 6.4 | 14.5 | 0.00 | 0.00 | 0.00 | 67 | 1018.6 |
| 20260507090106 | 21 | 197 | 1.6 | 11.3 | 0.00 | 0.00 | 0.00 | 69 | 1018.4 |
| 20260507084553 | 21 | 197 | 3.2 | 9.7 | 0.00 | 0.00 | 0.00 | 68 | 1018.6 |
| 20260507083050 | 21 | 197 | 0.0 | 4.8 | 0.00 | 0.00 | 0.00 | 68 | 1018.5 |
| 20260507081548 | 20 | 198 | 0.0 | 1.6 | 0.00 | 0.00 | 0.00 | 66 | 1018.5 |
| 20260507080047 | 20 | 197 | 3.2 | 11.3 | 0.00 | 0.00 | 0.00 | 67 | 1018.6 |
| 20260507074552 | 20 | 197 | 0.0 | 9.7 | 0.00 | 0.00 | 0.00 | 65 | 1018.5 |
| 20260507073043 | 20 | 198 | 4.8 | 11.3 | 0.00 | 0.00 | 0.00 | 64 | 1018.2 |
| 20260507071530 | 20 | 197 | 3.2 | 11.3 | 0.00 | 0.00 | 0.00 | 59 | 1018.2 |
| 20260507070029 | 20 | 198 | 6.4 | 14.5 | 0.00 | 0.00 | 0.00 | 59 | 1018.4 |
| 20260507064527 | 19 | 198 | 0.0 | 12.9 | 0.00 | 0.00 | 0.00 | 61 | 1018.4 |
| 20260507063029 | 18 | 197 | 8.0 | 14.5 | 0.00 | 0.00 | 0.00 | 62 | 1018.2 |
| 20260507061527 | 18 | 197 | 6.4 | 14.5 | 0.00 | 0.00 | 0.00 | 61 | 1018.3 |
| 20260507060023 | 18 | 198 | 6.4 | 12.9 | 0.00 | 0.00 | 0.00 | 60 | 1018.2 |
| 20260507054520 | 19 | 197 | 4.8 | 9.7 | 0.00 | 0.00 | 0.00 | 54 | 1018.1 |
| 20260507053018 | 19 | 197 | 0.0 | 1.6 | 0.00 | 0.00 | 0.00 | 52 | 1017.5 |
| 20260507051514 | 18 | 197 | 0.0 | 0.0 | 0.00 | 0.00 | 0.00 | 54 | 1017.3 |
| 20260507050053 | 18 | 197 | 0.0 | 0.0 | 0.00 | 0.00 | 0.00 | 57 | 1017.3 |
| 20260507044552 | 17 | 197 | 0.0 | 0.0 | 0.00 | 0.00 | 0.00 | 58 | 1017.3 |
| 20260507043042 | 16 | 197 | 0.0 | 0.0 | 0.00 | 0.00 | 0.00 | 65 | 1017.2 |
| 20260507041551 | 16 | 197 | 0.0 | 0.0 | 0.00 | 0.00 | 0.00 | 66 | 1017.3 |
| 20260507040037 | -17 | 0.0 | 0.0 | 0.00 | 0.00 | 0.00 | 1017.4 | ||
| 20260507034536 | -17 | 0.0 | 0.0 | 0.00 | 0.00 | 0.00 | 1017.4 | ||
| 20260507033032 | -17 | 0.0 | 0.0 | 0.00 | 0.00 | 0.00 | 1017.2 | ||
| 20260507031527 | -17 | 0.0 | 0.0 | 0.00 | 0.00 | 0.00 | 1017.2 | ||
| 20260507030026 | -17 | 0.0 | 0.0 | 0.00 | 0.00 | 0.00 | 1017.1 | ||
| 20260507024526 | -17 | 0.0 | 0.0 | 0.00 | 0.00 | 0.00 | 1017.0 | ||
| 20260507023005 | -17 | 0.0 | 0.0 | 0.00 | 0.00 | 0.00 | 1017.0 | ||
| 20260507021501 | -17 | 0.0 | 0.0 | 0.00 | 0.00 | 0.00 | 1016.9 | ||
| 20260507020147 | -17 | 0.0 | 0.0 | 0.00 | 0.00 | 0.00 | 1017.1 | ||
| 20260507014553 | -17 | 0.0 | 0.0 | 0.00 | 0.00 | 0.00 | 1017.2 | ||
| 20260507013044 | -17 | 0.0 | 0.0 | 0.00 | 0.00 | 0.00 | 1016.9 | ||
| 20260507011538 | -17 | 0.0 | 0.0 | 0.00 | 0.00 | 0.00 | 1016.7 | ||
| 20260507010032 | -17 | 0.0 | 0.0 | 0.00 | 0.00 | 0.00 | 1016.5 | ||
| 20260507004522 | -17 | 0.0 | 0.0 | 0.00 | 0.00 | 0.00 | 1016.5 | ||
| 20260507003018 | -17 | 0.0 | 0.0 | 0.00 | 0.00 | 0.00 | 1016.3 | ||
| 20260507001514 | -17 | 0.0 | 0.0 | 0.00 | 0.00 | 0.00 | 1016.3 | ||
| 20260507000100 | -17 | 0.0 | 0.0 | 0.00 | 0.00 | 0.00 | 1016.5 | ||
| 20260506234554 | -17 | 0.0 | 0.0 | 0.00 | 0.00 | 0.00 | 1016.8 | ||
| 20260506233050 | -17 | 0.0 | 0.0 | 0.00 | 0.00 | 0.00 | 1017.0 | ||
| 20260506231549 | 17 | 197 | 0.0 | 0.0 | 0.00 | 0.00 | 0.00 | 58 | 1017.1 |
| 20260506230046 | 17 | 197 | 0.0 | 0.0 | 0.00 | 0.00 | 0.00 | 59 | 1017.1 |
| 20260506224547 | 17 | 197 | 0.0 | 0.0 | 0.00 | 0.00 | 0.00 | 58 | 1017.1 |
| 20260506223101 | 17 | 197 | 0.0 | 0.0 | 0.00 | 0.00 | 0.00 | 58 | 1017.2 |
| 20260506221541 | 17 | 197 | 0.0 | 0.0 | 0.00 | 0.00 | 0.00 | 59 | 1017.3 |
| 20260506220029 | 17 | 197 | 0.0 | 0.0 | 0.00 | 0.00 | 0.00 | 57 | 1017.2 |
| 20260506214529 | 17 | 198 | 0.0 | 0.0 | 0.00 | 0.00 | 0.00 | 58 | 1017.2 |
| 20260506213025 | 17 | 197 | 0.0 | 0.0 | 0.00 | 0.00 | 0.00 | 60 | 1017.5 |
| 20260506211523 | 17 | 197 | 0.0 | 0.0 | 0.00 | 0.00 | 0.00 | 61 | 1017.6 |
| 20260506210020 | 18 | 196 | 0.0 | 0.0 | 0.00 | 0.00 | 0.00 | 59 | 1017.7 |
| 20260506204520 | 18 | 197 | 0.0 | 1.6 | 0.00 | 0.00 | 0.00 | 55 | 1017.8 |
| 20260506203021 | 18 | 197 | 0.0 | 0.0 | 0.00 | 0.00 | 0.00 | 52 | 1017.8 |
| 20260506201518 | 18 | 197 | 0.0 | 0.0 | 0.00 | 0.00 | 0.00 | 50 | 1017.7 |
| 20260506200005 | 19 | 197 | 0.0 | 0.0 | 0.00 | 0.00 | 0.00 | 48 | 1017.5 |